• In Uzbekistan
  • List of Countries
  • For 7 days
  • Water Temperature
  • Satellite Maps
  • Weather Map
  • Weather Widgets
  • user-avatar
    Login

    Hourly Weather Yeghegnadzor

    Today, 23 October, Monday

    Time Temperature Precipitation Wind Pressure Humidity
    00:00 +9°C° 0 mm 2 mps 650 mmHg 43%
    01:00 +9°C° 0 mm 2 mps 650 mmHg 45%
    02:00 +9°C° 0 mm 2 mps 650 mmHg 47%
    03:00 +9°C° 0 mm 2 mps 649 mmHg 48%
    04:00 +8°C° 0 mm 2 mps 649 mmHg 49%
    05:00 +8°C° 0 mm 2 mps 650 mmHg 50%
    06:00 +8°C° 0 mm 2 mps 650 mmHg 52%
    07:00 +9°C° 0 mm 2 mps 651 mmHg 46%
    08:00 +12°C° 0 mm 2 mps 651 mmHg 41%
    09:00 +14°C° 0 mm 2 mps 652 mmHg 36%
    10:00 +15°C° 0 mm 2 mps 652 mmHg 34%
    11:00 +16°C° 0 mm 2 mps 653 mmHg 32%
    12:00 +17°C° 0 mm 2 mps 653 mmHg 30%
    13:00 +17°C° 0 mm 2 mps 653 mmHg 30%
    14:00 +17°C° 0 mm 2 mps 653 mmHg 30%
    15:00 +17°C° 0 mm 2 mps 653 mmHg 29%
    16:00 +16°C° 0 mm 2 mps 653 mmHg 34%
    17:00 +14°C° 0 mm 2 mps 653 mmHg 38%
    18:00 +12°C° 0 mm 1 mps 653 mmHg 42%
    19:00 +12°C° 0 mm 1 mps 653 mmHg 42%
    20:00 +12°C° 0 mm 1 mps 653 mmHg 43%
    21:00 +12°C° 0 mm 2 mps 653 mmHg 43%
    22:00 +10°C° 0 mm 2 mps 653 mmHg 42%
    23:00 +10°C° 0 mm 2 mps 653 mmHg 42%

    Tomorrow, 24 October, Tuesday

    Time Temperature Precipitation Wind Pressure Humidity
    00:00 +10°C° 0 mm 2 mps 654 mmHg 41%
    01:00 +10°C° 0 mm 2 mps 653 mmHg 41%
    02:00 +9°C° 0 mm 2 mps 653 mmHg 40%
    03:00 +9°C° 0 mm 2 mps 653 mmHg 39%
    04:00 +9°C° 0 mm 2 mps 653 mmHg 39%
    05:00 +9°C° 0 mm 2 mps 653 mmHg 39%
    06:00 +8°C° 0 mm 2 mps 653 mmHg 39%
    07:00 +10°C° 0 mm 2 mps 654 mmHg 36%
    08:00 +14°C° 0 mm 2 mps 655 mmHg 33%
    09:00 +16°C° 0 mm 2 mps 655 mmHg 30%
    10:00 +17°C° 0 mm 2 mps 655 mmHg 28%
    11:00 +18°C° 0 mm 2 mps 655 mmHg 26%
    12:00 +18°C° 0 mm 3 mps 655 mmHg 24%
    13:00 +19°C° 0 mm 3 mps 655 mmHg 24%
    14:00 +19°C° 0 mm 3 mps 655 mmHg 24%
    15:00 +19°C° 0 mm 3 mps 655 mmHg 24%
    16:00 +17°C° 0 mm 2 mps 654 mmHg 27%
    17:00 +15°C° 0 mm 2 mps 654 mmHg 30%
    18:00 +13°C° 0 mm 2 mps 654 mmHg 34%
    19:00 +13°C° 0 mm 2 mps 654 mmHg 34%
    20:00 +13°C° 0 mm 2 mps 654 mmHg 35%
    21:00 +13°C° 0 mm 2 mps 655 mmHg 35%
    22:00 +12°C° 0 mm 2 mps 655 mmHg 37%
    23:00 +12°C° 0 mm 2 mps 655 mmHg 39%

    Day after tomorrow, 25 October, Wednesday

    Time Temperature Precipitation Wind Pressure Humidity
    00:00 +12°C° 0 mm 2 mps 655 mmHg 41%
    01:00 +12°C° 0 mm 2 mps 655 mmHg 43%
    02:00 +12°C° 0 mm 2 mps 655 mmHg 45%
    03:00 +10°C° 0 mm 2 mps 655 mmHg 46%
    04:00 +10°C° 0 mm 2 mps 655 mmHg 46%
    05:00 +10°C° 0 mm 2 mps 655 mmHg 46%
    06:00 +10°C° 0 mm 2 mps 655 mmHg 46%
    07:00 +13°C° 0 mm 2 mps 656 mmHg 41%
    08:00 +15°C° 0 mm 2 mps 657 mmHg 36%
    09:00 +17°C° 0 mm 2 mps 657 mmHg 31%
    10:00 +18°C° 0 mm 2 mps 657 mmHg 30%
    11:00 +19°C° 0 mm 3 mps 657 mmHg 29%
    12:00 +20°C° 0 mm 3 mps 657 mmHg 28%
    13:00 +20°C° 0 mm 3 mps 657 mmHg 28%
    14:00 +20°C° 0 mm 3 mps 656 mmHg 28%
    15:00 +20°C° 0 mm 3 mps 656 mmHg 28%
    16:00 +18°C° 0 mm 3 mps 656 mmHg 31%
    17:00 +17°C° 0 mm 2 mps 655 mmHg 35%
    18:00 +15°C° 0 mm 2 mps 655 mmHg 38%
    19:00 +15°C° 0 mm 2 mps 655 mmHg 39%
    20:00 +15°C° 0 mm 2 mps 655 mmHg 40%
    21:00 +14°C° 0 mm 2 mps 655 mmHg 40%
    22:00 +14°C° 0 mm 2 mps 655 mmHg 41%
    23:00 +13°C° 0 mm 3 mps 655 mmHg 41%

    26 October, Thursday

    Time Temperature Precipitation Wind Pressure Humidity
    00:00 +13°C° 0 mm 3 mps 655 mmHg 42%
    01:00 +12°C° 0 mm 3 mps 655 mmHg 42%
    02:00 +12°C° 0 mm 3 mps 654 mmHg 43%
    03:00 +12°C° 0 mm 3 mps 654 mmHg 43%
    04:00 +12°C° 0 mm 3 mps 654 mmHg 44%
    05:00 +11°C° 0 mm 3 mps 654 mmHg 45%
    06:00 +11°C° 0 mm 3 mps 653 mmHg 45%
    07:00 +13°C° 0 mm 3 mps 654 mmHg 41%
    08:00 +16°C° 0 mm 3 mps 654 mmHg 37%
    09:00 +18°C° 0 mm 3 mps 655 mmHg 32%
    10:00 +19°C° 0 mm 4 mps 654 mmHg 30%
    11:00 +20°C° 0 mm 4 mps 654 mmHg 28%
    12:00 +21°C° 0 mm 5 mps 654 mmHg 27%
    13:00 +21°C° 0 mm 5 mps 653 mmHg 26%
    14:00 +21°C° 0 mm 5 mps 653 mmHg 25%
    15:00 +21°C° 0 mm 5 mps 653 mmHg 24%
    16:00 +19°C° 0 mm 4 mps 653 mmHg 28%
    17:00 +17°C° 0 mm 3 mps 652 mmHg 31%
    18:00 +16°C° 0 mm 2 mps 652 mmHg 34%
    19:00 +15°C° 0 mm 2 mps 652 mmHg 35%
    20:00 +15°C° 0 mm 2 mps 653 mmHg 36%
    21:00 +13°C° 0 mm 3 mps 653 mmHg 37%
    22:00 +14°C° 0 mm 2 mps 653 mmHg 38%
    23:00 +13°C° 0 mm 2 mps 653 mmHg 39%

    27 October, Friday

    Time Temperature Precipitation Wind Pressure Humidity
    00:00 +12°C° 0 mm 2 mps 653 mmHg 41%
    01:00 +12°C° 0 mm 2 mps 653 mmHg 42%
    02:00 +12°C° 0 mm 2 mps 653 mmHg 44%
    03:00 +11°C° 0 mm 1 mps 653 mmHg 45%
    04:00 +11°C° 0 mm 1 mps 653 mmHg 48%
    05:00 +11°C° 0 mm 1 mps 653 mmHg 50%
    06:00 +9°C° 0 mm 2 mps 653 mmHg 53%
    07:00 +12°C° 0 mm 2 mps 654 mmHg 50%
    08:00 +13°C° 0 mm 2 mps 655 mmHg 47%
    09:00 +15°C° 0 mm 2 mps 655 mmHg 43%
    10:00 +16°C° 0 mm 2 mps 655 mmHg 41%
    11:00 +17°C° 0 mm 2 mps 655 mmHg 39%
    12:00 +17°C° 0 mm 3 mps 655 mmHg 37%
    13:00 +17°C° 0 mm 3 mps 654 mmHg 36%
    14:00 +17°C° 0 mm 2 mps 654 mmHg 36%
    15:00 +17°C° 0 mm 2 mps 654 mmHg 35%
    16:00 +16°C° 0 mm 2 mps 653 mmHg 40%
    17:00 +14°C° 0 mm 2 mps 653 mmHg 44%
    18:00 +13°C° 0 mm 1 mps 653 mmHg 49%
    19:00 +13°C° 0 mm 2 mps 653 mmHg 48%
    20:00 +12°C° 0 mm 2 mps 653 mmHg 47%
    21:00 +12°C° 0 mm 2 mps 653 mmHg 47%
    22:00 +12°C° 0 mm 2 mps 653 mmHg 46%
    23:00 +10°C° 0 mm 2 mps 652 mmHg 45%

    28 October, Saturday

    Time Temperature Precipitation Wind Pressure Humidity
    00:00 +10°C° 0 mm 2 mps 652 mmHg 44%
    01:00 +10°C° 0 mm 2 mps 652 mmHg 44%
    02:00 +10°C° 0 mm 2 mps 652 mmHg 44%
    03:00 +9°C° 0 mm 3 mps 652 mmHg 44%
    04:00 +9°C° 0 mm 3 mps 652 mmHg 45%
    05:00 +9°C° 0 mm 3 mps 652 mmHg 45%
    06:00 +9°C° 0 mm 3 mps 652 mmHg 45%
    07:00 +11°C° 0 mm 3 mps 652 mmHg 40%
    08:00 +12°C° 0 mm 3 mps 653 mmHg 34%
    09:00 +14°C° 0 mm 4 mps 653 mmHg 29%
    10:00 +17°C° 0 mm 4 mps 653 mmHg 27%
    11:00 +17°C° 0 mm 5 mps 653 mmHg 25%
    12:00 +19°C° 0 mm 6 mps 653 mmHg 24%
    13:00 +19°C° 0 mm 6 mps 652 mmHg 25%
    14:00 +19°C° 0 mm 6 mps 652 mmHg 27%
    15:00 +19°C° 0 mm 6 mps 652 mmHg 29%
    16:00 +17°C° 0.1 mm 5 mps 651 mmHg 37%
    17:00 +16°C° 0.1 mm 5 mps 651 mmHg 45%
    18:00 +14°C° 0.1 mm 4 mps 651 mmHg 53%
    19:00 +14°C° 0.2 mm 4 mps 651 mmHg 58%
    20:00 +14°C° 0.2 mm 4 mps 651 mmHg 63%
    21:00 +13°C° 0.2 mm 4 mps 651 mmHg 69%
    22:00 +13°C° 0.3 mm 4 mps 650 mmHg 70%
    23:00 +13°C° 0.3 mm 4 mps 650 mmHg 71%

    29 October, Sunday

    Time Temperature Precipitation Wind Pressure Humidity
    00:00 +13°C° 0.3 mm 3 mps 650 mmHg 72%
    01:00 +12°C° 0.3 mm 4 mps 650 mmHg 73%
    02:00 +12°C° 0.3 mm 4 mps 650 mmHg 73%
    03:00 +12°C° 0.3 mm 4 mps 650 mmHg 73%
    04:00 +12°C° 0.1 mm 4 mps 650 mmHg 74%
    05:00 +12°C° 0.1 mm 3 mps 649 mmHg 74%
    06:00 +12°C° 0.1 mm 3 mps 649 mmHg 75%
    07:00 +12°C° 0 mm 4 mps 650 mmHg 70%
    08:00 +13°C° 0 mm 4 mps 650 mmHg 65%
    09:00 +14°C° 0 mm 4 mps 650 mmHg 60%
    10:00 +15°C° 0 mm 4 mps 650 mmHg 56%
    11:00 +16°C° 0 mm 5 mps 650 mmHg 53%
    12:00 +17°C° 0 mm 5 mps 649 mmHg 49%
    13:00 +17°C° 0 mm 5 mps 649 mmHg 48%
    14:00 +17°C° 0 mm 5 mps 649 mmHg 46%
    15:00 +17°C° 0 mm 5 mps 648 mmHg 44%
    16:00 +17°C° 0 mm 4 mps 648 mmHg 48%
    17:00 +15°C° 0 mm 4 mps 648 mmHg 52%
    18:00 +13°C° 0 mm 3 mps 648 mmHg 56%
    19:00 +13°C° 0 mm 3 mps 648 mmHg 57%
    20:00 +12°C° 0 mm 3 mps 648 mmHg 59%
    21:00 +12°C° 0 mm 3 mps 648 mmHg 61%
    22:00 +12°C° 0 mm 3 mps 648 mmHg 62%
    23:00 +12°C° 0 mm 4 mps 647 mmHg 64%
    Show more